sat.trackr.live / text

‹ back to catalog

STARLINK-5964

NORAD 56009 · 2023-042Z

PAYLOAD ACTIVE UNKNOWN

§ Identity

Operator
Country
US
Launch date
2023-03-24
Launch site
AFETR
Launch vehicle
Mass (kg)
RCS (m²)

Purposes: comms

External: N2YO · Heavens-Above · Gunter

§ Orbital elements

Epoch: 2026-09-20T19:57:14.961024Z

Period
94.27 min
Inclination
43.0055°
Eccentricity
0.0001551
Mean motion
15.27576383 rev/d
Perigee alt
482.0 km
Apogee alt
484.1 km
Semi-major
6,861.2 km
B*
1.0027e-5
RAAN
40.9753°
Arg perigee
269.6687°
Mean anomaly
90.3986°
Rev number
19,267

§ Raw data

STARLINK-59641 56009U 23042Z   26263.83142316  .00000014  00000+0  10027-4 0  99962 56009  43.0055  40.9753 0001551 269.6687  90.3986 15.27576383192670

JSON: /api/v1/satellites/56009 · /tle

For live sub-satellite position, see the globe view (requires WebGL).

§ Visibility from observer

Set your observer location to see the next 7 days of passes ≥ 10°. The values pass through the URL so the page stays shareable.

No JS? Fill the form by hand. The geolocation button needs JavaScript.